McCook, NE

7:22 AM CDT on August 19, 2017 (GMT -0500)
McCook Municipal

Weather History for KMCK - April, 2012

Change the Weather History Date:

Monday, April 16, 2012

  Actual Average Record
Temperature  
Mean Temperature 48 °F 50 °F  
Max Temperature 59 °F 65 °F 90 °F (1963)
Min Temperature 36 °F 35 °F 18 °F (1951)
Degree Days  
Heating Degree Days 18    
Moisture  
Dew Point 35 °F    
Average Humidity 67    
Maximum Humidity 86    
Minimum Humidity 47    
Precipitation  
Precipitation 0.00 in 0.09 in 4.60 in (2016)
Month to date precipitation 1.63 1.04  
Year to date precipitation 2.52 3.53  
Sea Level Pressure  
Sea Level Pressure 30.14 in    
Wind  
Wind Speed 8 mph (WSW)    
Max Wind Speed 14 mph    
Max Gust Speed -    
Visibility 10 miles    
Events      
T = Trace of Precipitation, MM = Missing Value Source: NWS Daily Summary

Daily Weather History Graph

Daily Weather History Graph

Search for Another Location

Airport or City:

Trip Planner

Search our weather history database for the weather conditions in past years. The results will help you decide how hot, cold, wet, or windy it might be!

Date:

Astronomy

Apr. 16, 2012 Rise Set
Actual Time 7:01 AM CDT 8:22 PM CDT
Civil Twilight 6:33 AM CDT 8:51 PM CDT
Nautical Twilight 5:59 AM CDT 9:25 PM CDT
Astronomical Twilight 5:24 AM CDT 10:00 PM CDT
Moon 4:31 AM CDT (4/16) 4:18 PM CDT (4/16)
Length of Visible Light 14h 17m
Length of Day
13h 20m
Waning Crescent, 19% of the Moon is Illuminated
Apr 16
Waning Crescent
Apr 21
New
Apr 29
First Quarter
May 5
Full
May 12
Last Quarter

Hourly Weather History & Observations

Time (CDT) Temp. Windchill Dew Point Humidity Pressure Visibility Wind Dir Wind Speed Gust Speed Precip Events Conditions
12:53 AM 41.0 °F 34.7 °F 36.0 °F 82% 29.97 in 10.0 mi WNW 10.4 mph - N/A   Clear
1:53 AM 39.9 °F 33.4 °F 36.0 °F 86% 30.00 in 10.0 mi WNW 10.4 mph - N/A   Clear
2:53 AM 39.0 °F 31.0 °F 35.1 °F 86% 30.01 in 10.0 mi WNW 13.8 mph - N/A   Clear
3:53 AM 39.0 °F 32.8 °F 35.1 °F 86% 30.03 in 10.0 mi West 9.2 mph - N/A   Clear
4:53 AM 39.0 °F 31.8 °F 35.1 °F 86% 30.05 in 10.0 mi WNW 11.5 mph - N/A   Clear
5:53 AM 37.9 °F 32.7 °F 34.0 °F 86% 30.09 in 10.0 mi West 6.9 mph - N/A   Clear
6:53 AM 37.0 °F 29.8 °F 33.1 °F 86% 30.11 in 10.0 mi WNW 10.4 mph - N/A   Clear
7:53 AM 37.9 °F 33.5 °F 34.0 °F 86% 30.13 in 10.0 mi WSW 5.8 mph - N/A   Clear
8:53 AM 43.0 °F 38.2 °F 36.0 °F 76% 30.17 in 10.0 mi WNW 8.1 mph - N/A   Mostly Cloudy
9:53 AM 46.9 °F - 32.0 °F 56% 30.18 in 10.0 mi North 8.1 mph - N/A   Overcast
10:53 AM 50.0 °F - 30.9 °F 48% 30.18 in 10.0 mi NE 10.4 mph - N/A   Scattered Clouds
11:53 AM 51.1 °F - 32.0 °F 48% 30.21 in 10.0 mi North 9.2 mph - N/A   Overcast
12:53 PM 51.1 °F - 32.0 °F 48% 30.23 in 10.0 mi North 5.8 mph - N/A   Mostly Cloudy
1:53 PM 51.1 °F - 32.0 °F 48% 30.22 in 10.0 mi Calm Calm - N/A   Overcast
2:53 PM 54.0 °F - 35.1 °F 49% 30.19 in 10.0 mi Variable 6.9 mph - N/A   Scattered Clouds
3:08 PM 55.4 °F - 35.6 °F 47% 30.17 in 10.0 mi Calm Calm - N/A   Scattered Clouds
3:53 PM 55.9 °F - 36.0 °F 47% 30.18 in 10.0 mi WSW 5.8 mph - N/A   Partly Cloudy
4:53 PM 55.9 °F - 36.0 °F 47% 30.17 in 10.0 mi SSE 5.8 mph - N/A   Mostly Cloudy
5:53 PM 57.0 °F - 37.9 °F 49% 30.17 in 10.0 mi SW 3.5 mph - N/A   Scattered Clouds
6:53 PM 55.9 °F - 39.9 °F 55% 30.18 in 10.0 mi South 8.1 mph - N/A   Mostly Cloudy
7:53 PM 53.1 °F - 39.9 °F 61% 30.18 in 10.0 mi South 9.2 mph - N/A   Mostly Cloudy
8:53 PM 46.9 °F - 39.0 °F 74% 30.19 in 10.0 mi South 4.6 mph - N/A   Clear
9:53 PM 45.0 °F 41.8 °F 39.0 °F 80% 30.20 in 10.0 mi South 5.8 mph - N/A   Clear
10:53 PM 43.0 °F 40.3 °F 37.9 °F 82% 30.20 in 10.0 mi South 4.6 mph - N/A   Clear
11:53 PM 43.0 °F 40.3 °F 37.0 °F 80% 30.19 in 10.0 mi South 4.6 mph - N/A   Clear